TimeEST,TemperatureF,Dew PointF,Humidity,Sea Level PressureIn,VisibilityMPH,Wind Direction,Wind SpeedMPH,Gust SpeedMPH,PrecipitationIn,Events,Conditions,WindDirDegrees,DateUTC
12:53 AM,-2.0,-4.0,91,30.29,6.0,Calm,Calm,-,N/A,,Clear,0,2014-02-11 05:53:00
1:53 AM,-2.9,-6.0,87,30.30,5.0,Calm,Calm,-,N/A,,Clear,0,2014-02-11 06:53:00
2:53 AM,-4.0,-7.1,87,30.30,6.0,Calm,Calm,-,0.00,,Clear,0,2014-02-11 07:53:00
3:53 AM,-8.0,-9.9,91,30.31,7.0,Calm,Calm,-,N/A,,Clear,0,2014-02-11 08:53:00
4:53 AM,-6.0,-9.9,83,30.32,7.0,Calm,Calm,-,N/A,,Clear,0,2014-02-11 09:53:00
5:53 AM,-7.1,-11.0,83,30.33,4.0,Calm,Calm,-,N/A,,Clear,0,2014-02-11 10:53:00
6:53 AM,-8.0,-11.9,83,30.35,3.0,Calm,Calm,-,0.00,,Clear,0,2014-02-11 11:53:00
6:58 AM,-9.0,-13.0,83,30.32,1.8,Calm,Calm,-,N/A,,Clear,0,2014-02-11 11:58:00
7:10 AM,-8.0,-13.0,79,30.32,2.5,Calm,Calm,-,N/A,,Haze,0,2014-02-11 12:10:00
7:17 AM,-8.0,-11.9,83,30.33,4.0,Calm,Calm,-,N/A,,Clear,0,2014-02-11 12:17:00
7:32 AM,-7.1,-11.0,83,30.33,2.0,Calm,Calm,-,N/A,,Clear,0,2014-02-11 12:32:00
7:45 AM,-5.1,-9.9,80,30.34,3.0,SW,4.6,-,0.00,,Clear,220,2014-02-11 12:45:00
7:53 AM,-6.0,-8.0,91,30.38,4.0,Calm,Calm,-,0.00,,Clear,0,2014-02-11 12:53:00
8:53 AM,1.0,1.0,100,30.39,7.0,Calm,Calm,-,0.00,,Clear,0,2014-02-11 13:53:00
9:53 AM,16.0,3.0,57,30.39,10.0,Variable,3.5,-,N/A,,Clear,0,2014-02-11 14:53:00
10:53 AM,18.0,1.9,50,30.38,10.0,NNW,9.2,-,N/A,,Clear,340,2014-02-11 15:53:00
11:53 AM,19.0,1.9,47,30.37,10.0,WNW,6.9,-,N/A,,Partly Cloudy,290,2014-02-11 16:53:00
12:53 PM,21.9,1.9,42,30.34,10.0,Variable,6.9,17.3,N/A,,Partly Cloudy,0,2014-02-11 17:53:00
1:53 PM,21.9,1.0,40,30.32,10.0,WNW,6.9,-,N/A,,Clear,300,2014-02-11 18:53:00
2:53 PM,23.0,1.9,40,30.32,10.0,North,8.1,-,N/A,,Clear,360,2014-02-11 19:53:00
3:53 PM,23.0,1.9,40,30.35,10.0,Variable,6.9,-,N/A,,Clear,0,2014-02-11 20:53:00
4:53 PM,21.0,1.9,44,30.37,10.0,North,6.9,16.1,N/A,,Clear,360,2014-02-11 21:53:00
5:53 PM,19.0,1.0,46,30.41,10.0,NNW,4.6,-,N/A,,Clear,340,2014-02-11 22:53:00
6:53 PM,17.1,1.0,50,30.43,10.0,NW,5.8,-,N/A,,Clear,310,2014-02-11 23:53:00
7:53 PM,16.0,-0.0,49,30.45,10.0,Variable,6.9,-,N/A,,Clear,0,2014-02-12 00:53:00
8:53 PM,15.1,1.0,54,30.46,10.0,Variable,3.5,-,N/A,,Clear,0,2014-02-12 01:53:00
9:53 PM,10.9,-0.0,61,30.48,10.0,Calm,Calm,-,N/A,,Clear,0,2014-02-12 02:53:00
10:53 PM,10.0,-0.0,64,30.49,10.0,North,4.6,-,N/A,,Clear,360,2014-02-12 03:53:00
11:53 PM,3.0,-2.9,76,30.49,10.0,Calm,Calm,-,N/A,,Clear,0,2014-02-12 04:53:00